UAE71 OMDB-OERK

Flight info

Callsign UAE71
Flight time 1h 25m
Altitude 40000
Route SENPA N571 ALPOB L768 ULADA T136 OTISU N112 GETOT Q212 MEMGO
Aircraft A359/H-SDE2E3GHIJ3J4J5LM1ORWXY/LB1D1

Departure

Time 2026-05-07 09:51
Airport Dubai International Airport (OMDB)

Arrival

Time 2026-05-07 11:16
Airport King Khalid International Airport (OERK)
Time Latitude Longitude Altitude Speed Heading
2026-05-07 08:55 25.24193 55.37251 27 ft 0 kts 31°
2026-05-07 09:32 25.24210 55.37262 45 ft 4 kts 31°
2026-05-07 09:32 25.24192 55.37250 28 ft 0 kts 31°
2026-05-07 09:32 25.24222 55.37270 40 ft 9 kts 31°
2026-05-07 09:32 25.24238 55.37280 22 ft 0 kts 31°
2026-05-07 09:33 25.24193 55.37251 27 ft 0 kts 31°
2026-05-07 09:39 25.24185 55.37245 27 ft 3 kts 31°
2026-05-07 09:40 25.24175 55.37239 26 ft 0 kts 31°
2026-05-07 09:40 25.24174 55.37238 26 ft 2 kts 32°
2026-05-07 09:40 25.24159 55.37227 25 ft 3 kts 32°
2026-05-07 09:41 25.24144 55.37217 25 ft 3 kts 32°
2026-05-07 09:41 25.24129 55.37205 24 ft 2 kts 42°
2026-05-07 09:41 25.24116 55.37190 26 ft 3 kts 75°
2026-05-07 09:41 25.24115 55.37168 24 ft 3 kts 117°
2026-05-07 09:42 25.24125 55.37151 25 ft 3 kts 141°
2026-05-07 09:42 25.24139 55.37139 24 ft 3 kts 138°
2026-05-07 09:42 25.24145 55.37133 26 ft 0 kts 120°
2026-05-07 09:45 25.24134 55.37154 24 ft 9 kts 120°
2026-05-07 09:46 25.24097 55.37225 27 ft 13 kts 120°
2026-05-07 09:46 25.24047 55.37320 27 ft 16 kts 120°
2026-05-07 09:46 25.23987 55.37421 27 ft 16 kts 122°
2026-05-07 09:46 25.23975 55.37544 27 ft 18 kts 71°
2026-05-07 09:47 25.24047 55.37630 27 ft 10 kts 32°
2026-05-07 09:47 25.24114 55.37677 27 ft 13 kts 31°
2026-05-07 09:47 25.24183 55.37721 27 ft 9 kts 29°
2026-05-07 09:47 25.24247 55.37762 28 ft 12 kts 31°
2026-05-07 09:48 25.24329 55.37821 28 ft 16 kts 34°
2026-05-07 09:48 25.24424 55.37892 30 ft 18 kts 34°
2026-05-07 09:48 25.24532 55.37975 30 ft 21 kts 35°
2026-05-07 09:48 25.24650 55.38061 30 ft 20 kts 32°
2026-05-07 09:49 25.24679 55.38080 31 ft 0 kts 32°
2026-05-07 09:49 25.24683 55.38083 31 ft 2 kts 32°
2026-05-07 09:49 25.24723 55.38109 32 ft 11 kts 27°
2026-05-07 09:49 25.24767 55.38096 32 ft 8 kts 305°
2026-05-07 09:50 25.24774 55.38084 32 ft 0 kts 302°
2026-05-07 09:50 25.24909 55.37842 32 ft 79 kts 301°
2026-05-07 09:51 25.25326 55.37086 32 ft 150 kts 301°
2026-05-07 09:51 25.25953 55.36032 643 ft 164 kts 302°
2026-05-07 09:51 25.26614 55.34968 1451 ft 173 kts 298°
2026-05-07 09:51 25.27285 55.33771 1909 ft 197 kts 294°
2026-05-07 09:52 25.28013 55.32377 2395 ft 217 kts 297°
2026-05-07 09:52 25.28795 55.30929 3269 ft 221 kts 299°
2026-05-07 09:52 25.29485 55.29387 4099 ft 226 kts 287°
2026-05-07 09:52 25.29753 55.27675 5050 ft 227 kts 277°
2026-05-07 09:53 25.29890 55.25943 5808 ft 235 kts 277°
2026-05-07 09:53 25.30027 55.24095 6442 ft 246 kts 277°
2026-05-07 09:53 25.30176 55.22188 7198 ft 251 kts 277°
2026-05-07 09:53 25.30324 55.20252 8028 ft 254 kts 277°
2026-05-07 09:54 25.30411 55.18285 8872 ft 260 kts 270°
2026-05-07 09:54 25.30307 55.16215 9423 ft 281 kts 267°
2026-05-07 09:54 25.30134 55.13997 10011 ft 296 kts 265°
2026-05-07 09:54 25.29942 55.11670 10521 ft 315 kts 265°
2026-05-07 09:55 25.29743 55.09171 10902 ft 337 kts 265°
2026-05-07 09:55 25.29533 55.06560 11391 ft 352 kts 264°
2026-05-07 09:55 25.29315 55.03835 12125 ft 359 kts 265°
2026-05-07 09:55 25.29100 55.01074 12936 ft 364 kts 264°
2026-05-07 09:56 25.28880 54.98273 13721 ft 369 kts 264°
2026-05-07 09:56 25.28656 54.95428 14481 ft 372 kts 264°
2026-05-07 09:56 25.28469 54.92564 15269 ft 375 kts 267°
2026-05-07 09:56 25.28400 54.89669 16026 ft 379 kts 268°
2026-05-07 09:57 25.28343 54.86752 16823 ft 381 kts 268°
2026-05-07 09:57 25.28275 54.83821 17636 ft 383 kts 268°
2026-05-07 09:57 25.28201 54.80875 18421 ft 384 kts 268°
2026-05-07 09:57 25.28121 54.77953 19095 ft 388 kts 267°
2026-05-07 09:58 25.28151 54.74971 19831 ft 390 kts 274°
2026-05-07 09:58 25.28659 54.72012 20519 ft 395 kts 284°
2026-05-07 09:58 25.29393 54.69069 21225 ft 398 kts 285°
2026-05-07 09:58 25.30154 54.66114 21919 ft 402 kts 285°
2026-05-07 09:59 25.30918 54.63128 22620 ft 406 kts 284°
2026-05-07 09:59 25.31685 54.60112 23320 ft 409 kts 284°
2026-05-07 09:59 25.32451 54.57087 23684 ft 410 kts 284°
2026-05-07 09:59 25.33211 54.54091 23801 ft 411 kts 284°
2026-05-07 10:00 25.33996 54.51052 23819 ft 412 kts 285°
2026-05-07 10:00 25.34820 54.48013 23924 ft 415 kts 286°
2026-05-07 10:00 25.35665 54.44950 24410 ft 417 kts 285°
2026-05-07 10:00 25.36511 54.41887 25159 ft 416 kts 285°
2026-05-07 10:01 25.37349 54.38828 25889 ft 416 kts 285°
2026-05-07 10:01 25.38181 54.35757 26560 ft 418 kts 284°
2026-05-07 10:01 25.39009 54.32668 27216 ft 419 kts 285°
2026-05-07 10:01 25.39836 54.29615 27845 ft 421 kts 285°
2026-05-07 10:02 25.40687 54.26504 28467 ft 423 kts 284°
2026-05-07 10:02 25.41509 54.23369 29084 ft 425 kts 283°
2026-05-07 10:02 25.42302 54.20209 29680 ft 427 kts 283°
2026-05-07 10:02 25.43084 54.17035 30195 ft 430 kts 283°
2026-05-07 10:03 25.43868 54.13831 30670 ft 432 kts 283°
2026-05-07 10:03 25.44654 54.10617 31146 ft 434 kts 283°
2026-05-07 10:03 25.45447 54.07385 31592 ft 437 kts 283°
2026-05-07 10:03 25.46224 54.04173 32035 ft 439 kts 283°
2026-05-07 10:04 25.47015 54.00856 32481 ft 441 kts 282°
2026-05-07 10:04 25.47786 53.97610 32931 ft 443 kts 282°
2026-05-07 10:04 25.48571 53.94312 33376 ft 444 kts 282°
2026-05-07 10:04 25.49362 53.90994 33780 ft 446 kts 283°
2026-05-07 10:05 25.50158 53.87665 34100 ft 449 kts 283°
2026-05-07 10:05 25.50958 53.84320 34371 ft 452 kts 282°
2026-05-07 10:05 25.51752 53.80941 34662 ft 455 kts 282°
2026-05-07 10:05 25.52545 53.77543 34973 ft 456 kts 282°
2026-05-07 10:06 25.53346 53.74141 35394 ft 456 kts 283°
2026-05-07 10:06 25.54157 53.70802 35817 ft 454 kts 283°
2026-05-07 10:06 25.54984 53.67425 36206 ft 454 kts 283°
2026-05-07 10:06 25.55808 53.64065 36670 ft 451 kts 283°
2026-05-07 10:07 25.56624 53.60717 37097 ft 450 kts 283°
2026-05-07 10:07 25.57432 53.57369 37453 ft 450 kts 283°
2026-05-07 10:07 25.58231 53.54026 37809 ft 449 kts 282°
2026-05-07 10:07 25.59026 53.50679 38154 ft 449 kts 282°
2026-05-07 10:08 25.59819 53.47333 38504 ft 448 kts 282°
2026-05-07 10:08 25.60605 53.43992 38781 ft 448 kts 282°
2026-05-07 10:08 25.61387 53.40659 39062 ft 448 kts 281°
2026-05-07 10:08 25.62152 53.37359 39321 ft 448 kts 282°
2026-05-07 10:09 25.62930 53.34019 39583 ft 447 kts 282°
2026-05-07 10:09 25.63714 53.30685 39784 ft 448 kts 282°
2026-05-07 10:09 25.64503 53.27337 39823 ft 449 kts 282°
2026-05-07 10:10 25.66080 53.20653 39821 ft 449 kts 282°
2026-05-07 10:10 25.67643 53.14000 39822 ft 447 kts 281°
2026-05-07 10:11 25.69202 53.07346 39821 ft 446 kts 282°
2026-05-07 10:11 25.71074 53.00787 39824 ft 450 kts 290°
2026-05-07 10:12 25.73851 52.94547 39827 ft 453 kts 294°
2026-05-07 10:12 25.76787 52.88360 39823 ft 453 kts 294°
2026-05-07 10:13 25.79707 52.82211 39827 ft 453 kts 294°
2026-05-07 10:13 25.82629 52.76015 39833 ft 453 kts 294°
2026-05-07 10:14 25.85559 52.69812 39828 ft 454 kts 294°
2026-05-07 10:14 25.88491 52.63593 39831 ft 454 kts 294°
2026-05-07 10:15 25.91394 52.57373 39826 ft 454 kts 293°
2026-05-07 10:15 25.94163 52.51078 39835 ft 453 kts 292°
2026-05-07 10:16 25.96871 52.44819 39831 ft 452 kts 291°
2026-05-07 10:16 25.99610 52.38536 39832 ft 451 kts 292°
2026-05-07 10:17 26.02387 52.32284 39832 ft 451 kts 292°
2026-05-07 10:17 26.05186 52.26032 39836 ft 452 kts 292°
2026-05-07 10:18 26.07959 52.19820 39836 ft 452 kts 292°
2026-05-07 10:18 26.10749 52.13554 39839 ft 451 kts 292°
2026-05-07 10:19 26.13528 52.07309 39838 ft 450 kts 291°
2026-05-07 10:19 26.16282 52.01060 39836 ft 450 kts 291°
2026-05-07 10:20 26.19047 51.94854 39842 ft 451 kts 292°
2026-05-07 10:20 26.21865 51.88611 39841 ft 451 kts 292°
2026-05-07 10:21 26.24612 51.82337 39845 ft 450 kts 291°
2026-05-07 10:21 26.27351 51.76103 39845 ft 448 kts 292°
2026-05-07 10:22 26.30124 51.69944 39843 ft 447 kts 292°
2026-05-07 10:22 26.32895 51.63728 39845 ft 447 kts 291°
2026-05-07 10:23 26.35647 51.57507 39845 ft 447 kts 291°
2026-05-07 10:23 26.38228 51.51227 39863 ft 443 kts 286°
2026-05-07 10:24 26.40364 51.44812 39848 ft 440 kts 285°
2026-05-07 10:24 26.42415 51.38393 39847 ft 439 kts 285°
2026-05-07 10:25 26.44430 51.32015 39846 ft 439 kts 284°
2026-05-07 10:25 26.46466 51.25588 39851 ft 440 kts 285°
2026-05-07 10:26 26.48536 51.19167 39849 ft 440 kts 285°
2026-05-07 10:26 26.50576 51.12737 39853 ft 438 kts 285°
2026-05-07 10:27 26.52595 51.06380 39848 ft 437 kts 285°
2026-05-07 10:27 26.54637 50.99988 39848 ft 437 kts 285°
2026-05-07 10:28 26.56667 50.93597 39850 ft 437 kts 285°
2026-05-07 10:28 26.58678 50.87206 39848 ft 436 kts 284°
2026-05-07 10:29 26.60648 50.80831 39857 ft 437 kts 284°
2026-05-07 10:29 26.62632 50.74402 39855 ft 436 kts 284°
2026-05-07 10:30 26.65582 50.64816 39856 ft 434 kts 284°
2026-05-07 10:30 26.67462 50.58442 39859 ft 435 kts 283°
2026-05-07 10:31 26.69354 50.52019 39858 ft 435 kts 284°
2026-05-07 10:31 26.71230 50.45580 39859 ft 435 kts 282°
2026-05-07 10:32 26.72898 50.39091 39867 ft 434 kts 281°
2026-05-07 10:32 26.74071 50.32583 39867 ft 426 kts 271°
2026-05-07 10:33 26.73793 50.26033 39862 ft 420 kts 258°
2026-05-07 10:33 26.71912 50.19882 39870 ft 419 kts 244°
2026-05-07 10:34 26.69064 50.14203 39869 ft 418 kts 241°
2026-05-07 10:34 26.66085 50.08622 39867 ft 418 kts 240°
2026-05-07 10:35 26.63124 50.03085 39860 ft 418 kts 241°
2026-05-07 10:35 26.60173 49.97498 39858 ft 418 kts 241°
2026-05-07 10:36 26.57234 49.91904 39859 ft 417 kts 241°
2026-05-07 10:36 26.55168 49.87967 39858 ft 417 kts 241°
2026-05-07 10:37 26.52545 49.82981 39854 ft 417 kts 241°
2026-05-07 10:37 26.49806 49.77269 39855 ft 418 kts 248°
2026-05-07 10:38 26.47845 49.71156 39858 ft 418 kts 251°
2026-05-07 10:38 26.46036 49.64982 39857 ft 419 kts 252°
2026-05-07 10:39 26.44252 49.58848 39866 ft 419 kts 251°
2026-05-07 10:39 26.42434 49.52680 39865 ft 418 kts 251°
2026-05-07 10:40 26.40620 49.46513 39873 ft 419 kts 251°
2026-05-07 10:40 26.38807 49.40354 39874 ft 417 kts 251°
2026-05-07 10:41 26.37008 49.34271 39875 ft 416 kts 251°
2026-05-07 10:41 26.35203 49.28152 39881 ft 416 kts 251°
2026-05-07 10:42 26.33390 49.22030 39884 ft 416 kts 251°
2026-05-07 10:42 26.31569 49.15904 39889 ft 416 kts 251°
2026-05-07 10:43 26.29962 49.09713 39891 ft 417 kts 258°
2026-05-07 10:43 26.29560 49.06563 39742 ft 417 kts 261°
2026-05-07 10:43 26.29258 49.03352 39338 ft 416 kts 262°
2026-05-07 10:44 26.29002 49.00134 38719 ft 417 kts 263°
2026-05-07 10:44 26.28768 48.96920 38334 ft 416 kts 263°
2026-05-07 10:44 26.28537 48.93701 37814 ft 417 kts 263°
2026-05-07 10:44 26.28296 48.90481 37326 ft 418 kts 262°
2026-05-07 10:45 26.28048 48.87241 36833 ft 421 kts 262°
2026-05-07 10:45 26.27799 48.84029 36376 ft 423 kts 262°
2026-05-07 10:45 26.27546 48.80762 35919 ft 425 kts 262°
2026-05-07 10:45 26.27291 48.77470 35467 ft 428 kts 263°
2026-05-07 10:46 26.27039 48.74161 35021 ft 430 kts 263°
2026-05-07 10:46 26.26784 48.70831 34576 ft 432 kts 262°
2026-05-07 10:46 26.26518 48.67486 34158 ft 434 kts 262°
2026-05-07 10:46 26.26243 48.64132 33717 ft 436 kts 261°
2026-05-07 10:47 26.25954 48.60764 33223 ft 438 kts 261°
2026-05-07 10:47 26.25664 48.57377 32746 ft 440 kts 261°
2026-05-07 10:47 26.25353 48.54020 32285 ft 442 kts 259°
2026-05-07 10:47 26.24754 48.50661 31819 ft 443 kts 253°
2026-05-07 10:48 26.23768 48.47415 31370 ft 442 kts 246°
2026-05-07 10:48 26.22565 48.44268 30920 ft 441 kts 245°
2026-05-07 10:48 26.21303 48.41161 30485 ft 440 kts 244°
2026-05-07 10:48 26.20010 48.38075 30049 ft 439 kts 244°
2026-05-07 10:49 26.18707 48.35003 29535 ft 439 kts 243°
2026-05-07 10:49 26.17406 48.31937 28988 ft 437 kts 244°
2026-05-07 10:49 26.16132 48.28925 28443 ft 435 kts 244°
2026-05-07 10:49 26.14852 48.25885 27911 ft 432 kts 244°
2026-05-07 10:50 26.13585 48.22869 27374 ft 430 kts 244°
2026-05-07 10:50 26.12321 48.19866 26867 ft 427 kts 243°
2026-05-07 10:50 26.10843 48.17013 26351 ft 425 kts 236°
2026-05-07 10:50 26.09102 48.14376 25859 ft 422 kts 232°
2026-05-07 10:51 26.07283 48.11827 25364 ft 420 kts 231°
2026-05-07 10:51 26.05452 48.09360 24891 ft 418 kts 231°
2026-05-07 10:51 26.03587 48.06888 24412 ft 416 kts 230°
2026-05-07 10:51 26.01727 48.04426 23950 ft 415 kts 230°
2026-05-07 10:52 25.99881 48.01976 23483 ft 413 kts 231°
2026-05-07 10:52 25.98060 47.99548 22942 ft 410 kts 231°
2026-05-07 10:52 25.96229 47.97097 22395 ft 407 kts 231°
2026-05-07 10:52 25.94431 47.94686 21867 ft 404 kts 231°
2026-05-07 10:53 25.92644 47.92284 21342 ft 402 kts 231°
2026-05-07 10:53 25.90864 47.89894 20829 ft 400 kts 231°
2026-05-07 10:53 25.89119 47.87551 20334 ft 398 kts 231°
2026-05-07 10:53 25.87357 47.85186 19892 ft 396 kts 231°
2026-05-07 10:54 25.85600 47.82831 19647 ft 395 kts 231°
2026-05-07 10:54 25.83968 47.80381 19494 ft 395 kts 238°
2026-05-07 10:54 25.82506 47.77817 19105 ft 392 kts 239°
2026-05-07 10:54 25.81093 47.75242 18687 ft 390 kts 239°
2026-05-07 10:55 25.79695 47.72665 18289 ft 389 kts 239°
2026-05-07 10:55 25.78306 47.70092 17819 ft 389 kts 239°
2026-05-07 10:55 25.76921 47.67519 17366 ft 388 kts 239°
2026-05-07 10:55 25.75565 47.64988 16910 ft 386 kts 239°
2026-05-07 10:56 25.74192 47.62441 16474 ft 384 kts 239°
2026-05-07 10:56 25.72830 47.59906 16041 ft 382 kts 239°
2026-05-07 10:56 25.71473 47.57383 15598 ft 380 kts 238°
2026-05-07 10:56 25.70118 47.54876 15182 ft 378 kts 238°
2026-05-07 10:57 25.68773 47.52384 14745 ft 376 kts 237°
2026-05-07 10:57 25.67434 47.49904 14336 ft 374 kts 237°
2026-05-07 10:57 25.66108 47.47429 13914 ft 372 kts 237°
2026-05-07 10:57 25.64808 47.44997 13496 ft 371 kts 237°
2026-05-07 10:58 25.63492 47.42546 13050 ft 369 kts 237°
2026-05-07 10:58 25.62174 47.40115 12596 ft 367 kts 237°
2026-05-07 10:58 25.60869 47.37697 12163 ft 365 kts 237°
2026-05-07 10:58 25.59567 47.35289 11716 ft 363 kts 237°
2026-05-07 10:59 25.58269 47.32895 11291 ft 361 kts 237°
2026-05-07 10:59 25.56982 47.30520 10857 ft 359 kts 237°
2026-05-07 10:59 25.55698 47.28153 10454 ft 357 kts 237°
2026-05-07 10:59 25.54423 47.25804 10048 ft 355 kts 237°
2026-05-07 11:00 25.53178 47.23512 9615 ft 348 kts 237°
2026-05-07 11:00 25.51946 47.21247 9173 ft 337 kts 237°
2026-05-07 11:00 25.50756 47.19057 8721 ft 328 kts 237°
2026-05-07 11:00 25.49600 47.16927 8299 ft 318 kts 237°
2026-05-07 11:01 25.48480 47.14861 8039 ft 305 kts 237°
2026-05-07 11:01 25.47422 47.12911 7981 ft 287 kts 237°
2026-05-07 11:01 25.46408 47.11046 7987 ft 281 kts 236°
2026-05-07 11:01 25.45397 47.09199 7966 ft 281 kts 236°
2026-05-07 11:02 25.44396 47.07339 7850 ft 281 kts 238°
2026-05-07 11:02 25.43632 47.05342 7515 ft 284 kts 249°
2026-05-07 11:02 25.43079 47.03276 7227 ft 284 kts 251°
2026-05-07 11:02 25.42567 47.01166 7044 ft 284 kts 252°
2026-05-07 11:03 25.42070 46.99048 6846 ft 282 kts 253°
2026-05-07 11:03 25.41597 46.96990 6666 ft 271 kts 253°
2026-05-07 11:03 25.41143 46.95010 6473 ft 262 kts 252°
2026-05-07 11:03 25.40685 46.93066 6269 ft 261 kts 252°
2026-05-07 11:04 25.40383 46.91784 6154 ft 260 kts 252°
2026-05-07 11:04 25.39938 46.89854 5966 ft 259 kts 253°
2026-05-07 11:04 25.39494 46.87914 5773 ft 261 kts 251°
2026-05-07 11:04 25.39039 46.85969 5577 ft 260 kts 251°
2026-05-07 11:05 25.37869 46.83762 5345 ft 250 kts 214°
2026-05-07 11:05 25.36581 46.82479 5143 ft 254 kts 232°
2026-05-07 11:05 25.35993 46.80627 4962 ft 260 kts 260°
2026-05-07 11:05 25.35811 46.78633 4766 ft 260 kts 263°
2026-05-07 11:06 25.35693 46.77303 4627 ft 254 kts 262°
2026-05-07 11:06 25.35379 46.75425 4423 ft 242 kts 246°
2026-05-07 11:06 25.34550 46.73953 4216 ft 219 kts 227°
2026-05-07 11:06 25.33570 46.72732 4066 ft 208 kts 224°
2026-05-07 11:07 25.32584 46.71573 3871 ft 208 kts 223°
2026-05-07 11:07 25.31578 46.70395 3688 ft 211 kts 221°
2026-05-07 11:07 25.30585 46.69208 3558 ft 211 kts 223°
2026-05-07 11:07 25.29574 46.68014 3737 ft 213 kts 221°
2026-05-07 11:08 25.28458 46.66962 4069 ft 210 kts 215°
2026-05-07 11:08 25.27323 46.65951 4354 ft 209 kts 214°
2026-05-07 11:08 25.26215 46.64986 4284 ft 204 kts 212°
2026-05-07 11:08 25.25088 46.64026 4190 ft 203 kts 213°
2026-05-07 11:09 25.23996 46.63090 4069 ft 199 kts 213°
2026-05-07 11:09 25.22877 46.62133 3995 ft 208 kts 215°
2026-05-07 11:09 25.21722 46.61146 3974 ft 211 kts 214°
2026-05-07 11:09 25.20560 46.60155 3970 ft 211 kts 214°
2026-05-07 11:10 25.19275 46.59432 3973 ft 206 kts 190°
2026-05-07 11:10 25.17900 46.59140 3969 ft 198 kts 184°
2026-05-07 11:10 25.16534 46.59036 3963 ft 196 kts 174°
2026-05-07 11:10 25.15240 46.59382 3981 ft 194 kts 157°
2026-05-07 11:11 25.14020 46.59925 3957 ft 179 kts 152°
2026-05-07 11:11 25.13001 46.60499 3942 ft 151 kts 148°
2026-05-07 11:11 25.12154 46.61017 3947 ft 131 kts 146°
2026-05-07 11:11 25.11379 46.61512 3966 ft 128 kts 145°
2026-05-07 11:12 25.10609 46.62002 3966 ft 128 kts 146°
2026-05-07 11:12 25.09834 46.62490 3971 ft 129 kts 146°
2026-05-07 11:12 25.09054 46.62978 3976 ft 128 kts 145°
2026-05-07 11:12 25.08283 46.63462 3969 ft 127 kts 145°
2026-05-07 11:13 25.07518 46.63946 3967 ft 127 kts 145°
2026-05-07 11:13 25.06759 46.64429 3968 ft 128 kts 145°
2026-05-07 11:13 25.05980 46.64928 3847 ft 130 kts 145°
2026-05-07 11:13 25.05200 46.65425 3708 ft 129 kts 143°
2026-05-07 11:14 25.04428 46.65917 3516 ft 128 kts 143°
2026-05-07 11:14 25.03654 46.66411 3367 ft 129 kts 142°
2026-05-07 11:14 25.02882 46.66902 3217 ft 129 kts 141°
2026-05-07 11:14 25.02106 46.67395 3053 ft 129 kts 144°
2026-05-07 11:15 25.01332 46.67884 2888 ft 128 kts 140°
2026-05-07 11:15 25.00570 46.68374 2736 ft 129 kts 143°
2026-05-07 11:15 24.99782 46.68874 2555 ft 131 kts 148°
2026-05-07 11:15 24.98996 46.69371 2390 ft 129 kts 147°
2026-05-07 11:16 24.98221 46.69865 2212 ft 128 kts 147°
2026-05-07 11:16 24.97453 46.70357 2058 ft 128 kts 147°
2026-05-07 11:16 24.96795 46.70767 2037 ft 71 kts 151°
2026-05-07 11:16 24.96611 46.70881 2041 ft 9 kts 150°
2026-05-07 11:17 24.96423 46.71001 2039 ft 45 kts 149°
2026-05-07 11:17 24.96159 46.71093 2044 ft 31 kts 181°
2026-05-07 11:17 24.96011 46.71034 2046 ft 5 kts 231°
2026-05-07 11:17 24.95973 46.70995 2046 ft 10 kts 214°
2026-05-07 11:18 24.95895 46.70995 2045 ft 12 kts 161°
2026-05-07 11:18 24.95813 46.71041 2047 ft 15 kts 152°
2026-05-07 11:18 24.95719 46.71099 2042 ft 16 kts 149°
2026-05-07 11:18 24.95618 46.71173 2046 ft 20 kts 146°
2026-05-07 11:19 24.95534 46.71227 2047 ft 0 kts 156°
2026-05-07 11:20 24.95513 46.71237 2046 ft 8 kts 156°
2026-05-07 11:21 24.95445 46.71283 2048 ft 14 kts 146°
2026-05-07 11:21 24.95439 46.71288 2048 ft 0 kts 146°
2026-05-07 11:21 24.95418 46.71299 2047 ft 8 kts 154°
2026-05-07 11:21 24.95336 46.71345 2049 ft 17 kts 150°
2026-05-07 11:22 24.95225 46.71412 2042 ft 19 kts 152°
2026-05-07 11:22 24.95109 46.71481 2046 ft 19 kts 151°
2026-05-07 11:22 24.95043 46.71521 2050 ft 0 kts 152°
2026-05-07 11:23 24.95013 46.71543 2044 ft 12 kts 146°
2026-05-07 11:23 24.94907 46.71616 2050 ft 23 kts 150°
2026-05-07 11:23 24.94763 46.71591 2051 ft 28 kts 233°
2026-05-07 11:23 24.94672 46.71414 2048 ft 24 kts 241°
2026-05-07 11:24 24.94602 46.71289 2050 ft 15 kts 228°
2026-05-07 11:24 24.94551 46.71277 2050 ft 6 kts 159°
2026-05-07 11:24 24.94506 46.71301 2047 ft 8 kts 158°
2026-05-07 11:24 24.94458 46.71285 2049 ft 9 kts 222°
2026-05-07 11:25 24.94427 46.71235 2050 ft 7 kts 238°
2026-05-07 11:25 24.94423 46.71228 2049 ft 0 kts 242°
2026-05-07 11:25 24.94423 46.71227 2050 ft 1 kts 242°
2026-05-07 11:26 24.94418 46.71218 2049 ft 0 kts 240°
2026-05-07 11:26 24.94417 46.71218 2049 ft 0 kts 240°